DH0GMA Weather Reports


Display with metric or nautical units.
time (UTC)temp
F
wind
direction
speed
MPH
gust
MPH
rain 1hr
in
rain 24hr
in
rain mn
in
humidity
%
barometer
mb
20260902071746 59 258 0.0 2.0 0.00 0.00 0.00 87 1020.9
20260902070746 58 258 0.0 1.0 0.00 0.00 0.00 90 1021.1
20260902065746 56 258 0.0 0.0 0.00 0.00 0.00 90 1021.2
20260902064746 55 258 0.0 0.0 0.00 0.00 0.00 91 1021.3
20260902063746 54 258 1.0 3.0 0.00 0.00 0.00 91 1021.3
20260902062745 54 261 1.0 3.0 0.00 0.00 0.00 92 1021.4
20260902061745 54 261 0.0 0.0 0.00 0.00 0.00 92 1021.4
20260902060745 54 261 0.0 0.0 0.00 0.00 0.00 93 1021.2
20260902055745 53 261 0.0 0.0 0.00 0.00 0.00 93 1021.2
20260902054746 53 262 0.0 0.0 0.00 0.00 0.00 94 1021.0
20260902053746 51 262 0.0 0.0 0.00 0.00 0.00 94 1020.9
20260902052746 51 262 0.0 0.0 0.00 0.00 0.00 93 1020.9
20260902051745 51 262 0.0 0.0 0.00 0.00 0.00 93 1021.1
20260902050745 50 262 0.0 0.0 0.00 0.00 0.00 92 1021.0
20260902045745 50 262 0.0 0.0 0.00 0.00 0.00 92 1020.9
20260902044746 51 262 0.0 0.0 0.00 0.00 0.00 92 1020.9
20260902043746 51 262 0.0 0.0 0.00 0.00 0.00 92 1020.8
20260902042746 51 262 0.0 0.0 0.00 0.00 0.00 92 1020.7
20260902041746 51 262 0.0 0.0 0.00 0.00 0.00 92 1020.7
20260902040745 51 262 0.0 0.0 0.00 0.00 0.00 92 1020.8
20260902035745 51 262 0.0 0.0 0.00 0.00 0.00 92 1020.8
20260902034745 51 262 0.0 0.0 0.00 0.00 0.00 92 1020.7
20260902033746 51 262 0.0 0.0 0.00 0.00 0.00 91 1020.7
20260902032746 51 262 0.0 0.0 0.00 0.00 0.00 91 1020.7
20260902031745 51 262 0.0 0.0 0.00 0.00 0.00 91 1020.7
20260902030745 51 262 0.0 0.0 0.00 0.00 0.00 91 1020.7
20260902025746 52 262 0.0 0.0 0.00 0.00 0.00 91 1020.8
20260902024746 52 262 0.0 0.0 0.00 0.00 0.00 91 1020.9
20260902023746 52 262 0.0 0.0 0.00 0.00 0.00 91 1020.9
20260902022745 52 262 0.0 0.0 0.00 0.00 0.00 90 1020.9
20260902021745 52 262 0.0 0.0 0.00 0.00 0.00 90 1021.0
20260902020745 53 262 0.0 0.0 0.00 0.00 0.00 90 1021.0
20260902015745 53 262 0.0 0.0 0.00 0.00 0.00 90 1021.1
20260902014746 53 262 0.0 1.0 0.00 0.00 0.00 90 1020.9
20260902013745 53 262 0.0 1.0 0.00 0.00 0.00 90 1020.9
20260902012745 53 262 0.0 0.0 0.00 0.00 0.00 89 1021.1
20260902011746 53 262 0.0 0.0 0.00 0.00 0.00 89 1021.3
20260902010746 53 262 0.0 0.0 0.00 0.00 0.00 89 1021.2
20260902005745 54 262 0.0 0.0 0.00 0.00 0.00 89 1021.2
20260902004745 54 262 0.0 0.0 0.00 0.00 0.00 89 1021.2
20260902003745 54 262 0.0 0.0 0.00 0.00 0.00 88 1021.1
20260902002746 54 262 0.0 0.0 0.00 0.00 0.00 87 1021.2
20260902001746 55 262 0.0 0.0 0.00 0.00 0.00 87 1021.1
20260902000745 55 262 0.0 0.0 0.00 0.00 0.00 87 1021.1
20260901235745 55 262 0.0 0.0 0.00 0.00 0.00 87 1021.2
20260901234745 55 262 0.0 0.0 0.00 0.00 0.00 87 1021.3
20260901233744 56 262 0.0 0.0 0.00 0.00 0.00 86 1021.4
20260901232744 56 262 0.0 0.0 0.00 0.00 0.00 85 1021.4
20260901231746 56 262 0.0 0.0 0.00 0.00 0.00 85 1021.4
20260901230745 56 262 0.0 0.0 0.00 0.00 0.00 83 1021.4
20260901225745 57 262 0.0 0.0 0.00 0.00 0.00 83 1021.5
20260901224745 57 262 0.0 1.0 0.00 0.00 0.00 83 1021.5
20260901223744 57 262 0.0 0.0 0.00 0.00 0.00 83 1021.4
20260901222746 57 262 0.0 0.0 0.00 0.00 0.00 83 1021.4
20260901221746 57 262 0.0 0.0 0.00 0.00 0.00 83 1021.4
20260901220745 57 262 0.0 0.0 0.00 0.00 0.00 83 1021.5
20260901215745 58 262 0.0 0.0 0.00 0.00 0.00 82 1021.3
20260901214744 58 262 0.0 0.0 0.00 0.00 0.00 82 1021.4
20260901213744 58 262 0.0 0.0 0.00 0.00 0.00 82 1021.5
20260901212746 58 262 0.0 0.0 0.00 0.00 0.00 79 1021.3
20260901211746 59 262 0.0 0.0 0.00 0.00 0.00 79 1021.2
20260901210745 59 262 0.0 0.0 0.00 0.00 0.00 78 1021.2
20260901205745 60 262 0.0 0.0 0.00 0.00 0.00 76 1021.3
20260901204746 60 262 0.0 0.0 0.00 0.00 0.00 76 1021.1
20260901203745 60 262 0.0 0.0 0.00 0.00 0.00 75 1021.2
20260901202745 61 262 0.0 0.0 0.00 0.00 0.00 74 1021.2
20260901201745 62 262 0.0 0.0 0.00 0.00 0.00 73 1021.1
20260901200745 62 262 0.0 0.0 0.00 0.00 0.00 72 1021.0
20260901195744 63 262 0.0 0.0 0.00 0.00 0.00 70 1021.0
20260901194744 64 262 0.0 0.0 0.00 0.00 0.00 68 1021.0
20260901193746 64 262 0.0 0.0 0.00 0.00 0.00 67 1021.0
20260901192746 65 262 0.0 0.0 0.00 0.00 0.00 67 1020.8
20260901191746 65 262 0.0 1.0 0.00 0.00 0.00 66 1020.7
20260901190745 65 262 0.0 0.0 0.00 0.00 0.00 66 1020.7
20260901185745 65 262 0.0 0.0 0.00 0.00 0.00 65 1020.5
20260901184745 66 262 0.0 1.0 0.00 0.00 0.00 63 1020.5
20260901183744 66 262 0.0 0.0 0.00 0.00 0.00 63 1020.4
20260901182746 67 262 0.0 0.0 0.00 0.00 0.00 62 1020.2
20260901181745 67 262 0.0 1.0 0.00 0.00 0.00 61 1020.1
20260901180745 68 262 0.0 0.0 0.00 0.00 0.00 60 1020.0
20260901175745 69 262 0.0 0.0 0.00 0.00 0.00 59 1020.0
20260901174745 69 262 0.0 0.0 0.00 0.00 0.00 58 1019.8
20260901173744 70 262 0.0 1.0 0.00 0.00 0.00 56 1019.7
20260901172744 71 262 0.0 2.0 0.00 0.00 0.00 54 1019.8
20260901171746 72 260 1.0 2.0 0.00 0.00 0.00 52 1019.8
20260901170746 73 16 0.0 2.0 0.00 0.00 0.00 51 1019.9
20260901165745 73 32 1.0 2.0 0.00 0.00 0.00 52 1019.9
20260901164745 73 44 1.0 3.0 0.00 0.00 0.00 51 1019.9
20260901163745 73 356 1.0 4.0 0.00 0.00 0.00 51 1019.9
20260901162744 73 36 0.0 4.0 0.00 0.00 0.00 51 1019.9
20260901161744 74 66 0.0 2.0 0.00 0.00 0.00 50 1019.9
20260901160744 74 286 0.0 3.0 0.00 0.00 0.00 50 1019.9
20260901155746 75 245 1.0 4.0 0.00 0.00 0.00 48 1019.8
20260901154745 75 322 0.0 3.0 0.00 0.00 0.00 49 1019.8
20260901153745 74 359 1.0 3.0 0.00 0.00 0.00 50 1019.7
20260901152745 74 337 0.0 3.0 0.00 0.00 0.00 50 1019.7
20260901151745 75 336 1.0 4.0 0.00 0.00 0.00 50 1019.6
20260901150745 75 214 2.0 3.0 0.00 0.00 0.00 50 1019.6
20260901145745 74 324 1.0 3.0 0.00 0.00 0.00 50 1019.6
20260901144745 75 345 1.0 2.0 0.00 0.00 0.00 50 1019.7
20260901143744 75 279 0.0 4.0 0.00 0.00 0.00 51 1019.7
20260901142744 76 340 1.0 2.0 0.00 0.00 0.00 49 1019.7
20260901141744 76 320 1.0 3.0 0.00 0.00 0.00 50 1019.8
20260901140744 75 317 2.0 5.0 0.00 0.00 0.00 51 1019.8
20260901135745 76 299 1.0 4.0 0.00 0.00 0.00 48 1019.7
20260901134745 78 205 2.0 6.0 0.00 0.00 0.00 47 1019.7
20260901133745 77 246 1.0 4.0 0.00 0.00 0.00 48 1019.8
20260901132745 76 8 2.0 5.0 0.00 0.00 0.00 50 1019.9
20260901131745 75 211 1.0 3.0 0.00 0.00 0.00 52 1020.0
20260901130744 74 227 2.0 6.0 0.00 0.00 0.00 52 1020.1
20260901125744 75 161 4.0 11.0 0.00 0.00 0.00 51 1020.3
20260901124745 75 325 0.0 3.0 0.00 0.00 0.00 55 1020.4
20260901123745 74 211 2.0 4.0 0.00 0.00 0.00 56 1020.4
20260901122745 73 247 1.0 4.0 0.00 0.00 0.00 55 1020.4
20260901121746 73 268 0.0 1.0 0.00 0.00 0.00 58 1020.4
20260901120746 74 267 0.0 3.0 0.00 0.00 0.00 57 1020.5
20260901115746 75 332 1.0 4.0 0.00 0.00 0.00 56 1020.5
20260901114746 74 318 1.0 5.0 0.00 0.00 0.00 57 1020.6
20260901113747 73 114 1.0 3.0 0.00 0.00 0.00 59 1020.7
20260901112747 72 346 0.0 4.0 0.00 0.00 0.00 61 1020.7
20260901111747 71 281 0.0 4.0 0.00 0.00 0.00 62 1020.7
20260901110747 71 325 1.0 6.0 0.00 0.00 0.00 61 1020.8
20260901105747 72 331 1.0 4.0 0.00 0.00 0.00 59 1020.7
20260901104746 74 284 1.0 4.0 0.00 0.00 0.00 57 1020.6
20260901103746 74 278 1.0 10.0 0.00 0.00 0.00 56 1020.6
20260901102746 74 232 2.0 5.0 0.00 0.00 0.00 57 1020.7
20260901101747 72 205 3.0 7.0 0.00 0.00 0.00 59 1020.7
20260901100747 72 171 6.0 12.0 0.00 0.00 0.00 59 1020.8
20260901095747 72 227 3.0 7.0 0.00 0.00 0.00 61 1020.8
20260901094747 72 248 2.0 4.0 0.00 0.00 0.00 62 1021.0
20260901093746 72 196 1.0 8.0 0.00 0.00 0.00 63 1021.0
20260901092746 71 285 2.0 5.0 0.00 0.00 0.00 64 1021.1
20260901091746 71 237 1.0 4.0 0.00 0.00 0.00 64 1021.1
20260901090747 71 217 0.0 3.0 0.00 0.00 0.00 65 1021.2
20260901085747 71 237 1.0 4.0 0.00 0.00 0.00 65 1021.2
20260901084747 71 272 1.0 3.0 0.00 0.00 0.00 64 1021.3
20260901083747 70 278 1.0 2.0 0.00 0.00 0.00 66 1021.2
20260901082747 69 237 2.0 3.0 0.00 0.00 0.00 68 1021.3
20260901081746 68 203 1.0 4.0 0.00 0.00 0.00 70 1021.3
20260901080746 67 251 1.0 3.0 0.00 0.00 0.00 72 1021.2
20260901075747 67 181 0.0 3.0 0.00 0.00 0.00 74 1021.1
20260901074747 66 191 1.0 2.0 0.00 0.00 0.00 73 1021.1
20260901073747 66 153 3.0 4.0 0.00 0.00 0.00 71 1021.0
20260901072747 65 255 0.0 3.0 0.00 0.00 0.00 74 1021.0